User: anonymous   Login
Location: Altleiningen
(49.5078°N, 8.0741°E)
Time: 00:44:06
(UTC+00:00)
Language:

NOSS 3-3 (C) - Orbit

View from above orbital plane
View from above orbital plane
View from above satellite
View from above satellite

Ground track
Ground track

The orbit data is extracted from the following two-line orbital elements,

1 28541U 05004C   21134.94124097 0.00000000  00000-0  00000-0 0    09
2 28541  63.4222 145.7215 0395783 358.6734   1.3266 13.40811070    00
Epoch (UTC): 14 May 2021 22:35:23
Eccentricity: 0.0395783
inclination: 63.4222°
perigee height: 810 km
apogee height: 1402 km
right ascension of ascending node: 145.7215°
argument of perigee: 358.6734°
revolutions per day: 13.40811070
mean anomaly at epoch: 1.3266°
orbit number at epoch: 0

The dashed part of the orbit path shows where the satellite is in the earth's shadow,  

DLR